Tracking 30922 objects as of 2-Jul-2025
HD Live streaming from Space Station
objects crossing your sky now

STARLINK-32684

Track STARLINK-32684 now!
10-day predictions
STARLINK-32684 is classified as:


NORAD ID: 62194
Int'l Code: 2024-229C
Perigee: 489.1 km
Apogee: 491.3 km
Inclination: 43.0 °
Period: 94.3 minutes
Semi major axis: 6861 km
RCS: Unknown
Launch date: December 4, 2024
Source: United States (US)
Launch site: AIR FORCE EASTERN TEST RANGE (AFETR)
Your satellite tracking list
Your tracking list is empty




NASA's NSSDC Master Catalog

Two Line Element Set (TLE):
1 62194U 24229C   25182.53417015  .00019515  00000-0  71659-3 0  9997
2 62194  42.9988 248.8304 0001611 266.5998  93.4669 15.27590142 33332
Source of the keplerian elements: AFSPC